�������l�o���
Date,Time,MP-1(��Sv/h),MP-2(��Sv/h),MP-3(��Sv/h),MP-4(��Sv/h),MP-5(��Sv/h),MP-6(��Sv/h),MP-7(��Sv/h),MP-8(��Sv/h),����,����(m/s),���J
2019/01/19,00:00,0.793,1.132,0.827,1.518,1.086,0.452,0.802,0.756,�k��,9.2,��
2019/01/19,00:10,0.793,1.147,0.827,1.518,1.083,0.452,0.801,0.758,�k��,6.5,��
2019/01/19,00:20,0.793,1.129,0.824,1.519,1.085,0.452,0.802,0.757,�k��,7.5,��
2019/01/19,00:30,0.790,1.155,0.827,1.516,1.082,0.451,0.801,0.760,���k��,8.4,��
2019/01/19,00:40,0.791,1.165,0.824,1.519,1.084,0.454,0.804,0.758,�k��,4.9,��
2019/01/19,00:50,0.792,1.180,0.824,1.516,1.084,0.452,0.802,0.758,�k��,6.7,��
2019/01/19,01:00,0.792,1.178,0.826,1.516,1.084,0.451,0.802,0.757,�k��,5.2,��
2019/01/19,01:10,0.792,1.182,0.823,1.517,1.084,0.452,0.802,0.759,�k��,7.3,��
2019/01/19,01:20,0.792,1.179,0.827,1.518,1.086,0.451,0.802,0.759,�k��,8.0,��
2019/01/19,01:30,0.793,1.179,0.829,1.519,1.084,0.451,0.803,0.758,�k��,7.3,��
2019/01/19,01:40,0.794,1.179,0.828,1.518,1.086,0.452,0.803,0.759,�k�k��,7.8,��
2019/01/19,01:50,0.791,1.180,0.827,1.518,1.085,0.452,0.802,0.758,�k�k��,10.3,��
2019/01/19,02:00,0.793,1.180,0.828,1.516,1.083,0.452,0.802,0.759,�k��,10.0,��
2019/01/19,02:10,0.792,1.181,0.828,1.519,1.085,0.453,0.802,0.757,�k��,10.9,��
2019/01/19,02:20,0.791,1.181,0.829,1.517,1.085,0.453,0.802,0.758,�k��,10.9,��
2019/01/19,02:30,0.794,1.179,0.827,1.518,1.084,0.452,0.803,0.758,�k��,5.6,��
2019/01/19,02:40,0.792,1.180,0.827,1.521,1.083,0.451,0.803,0.759,�k�k��,8.9,��
2019/01/19,02:50,0.793,1.180,0.827,1.520,1.086,0.452,0.801,0.757,�k�k��,8.1,��
2019/01/19,03:00,0.791,1.181,0.830,1.518,1.086,0.451,0.802,0.756,�k�k��,9.5,��
2019/01/19,03:10,0.793,1.180,0.828,1.520,1.084,0.452,0.803,0.757,�k��,8.9,��
2019/01/19,03:20,0.793,1.179,0.830,1.518,1.085,0.452,0.802,0.758,�k�k��,6.2,��
2019/01/19,03:30,0.792,1.178,0.826,1.518,1.085,0.452,0.804,0.757,�k�k��,8.4,��
2019/01/19,03:40,0.792,1.178,0.827,1.518,1.086,0.454,0.802,0.759,�k��,7.1,��
2019/01/19,03:50,0.794,1.179,0.830,1.519,1.086,0.452,0.802,0.758,�k�k��,7.7,��
2019/01/19,04:00,0.792,1.181,0.827,1.519,1.086,0.452,0.802,0.758,�k��,8.4,��
2019/01/19,04:10,0.792,1.180,0.830,1.519,1.085,0.454,0.803,0.758,�k��,8.1,��
2019/01/19,04:20,0.791,1.178,0.829,1.517,1.086,0.453,0.801,0.757,�k��,7.8,��
2019/01/19,04:30,0.792,1.180,0.827,1.519,1.085,0.452,0.802,0.759,�k��,7.1,��
2019/01/19,04:40,0.790,1.181,0.828,1.517,1.084,0.451,0.802,0.758,�k��,5.0,��
2019/01/19,04:50,0.791,1.179,0.826,1.519,1.085,0.452,0.802,0.758,�k��,6.3,��
2019/01/19,05:00,0.792,1.178,0.827,1.520,1.086,0.451,0.803,0.757,�k��,7.6,��
2019/01/19,05:10,0.794,1.180,0.826,1.519,1.085,0.452,0.801,0.757,�k��,6.7,��
2019/01/19,05:20,0.792,1.179,0.829,1.517,1.084,0.451,0.802,0.758,�k��,6.3,��
2019/01/19,05:30,0.793,1.181,0.829,1.521,1.085,0.452,0.802,0.758,�k��,8.4,��
2019/01/19,05:40,0.793,1.179,0.827,1.519,1.086,0.453,0.800,0.757,�k��,6.8,��
2019/01/19,05:50,0.793,1.179,0.828,1.516,1.084,0.452,0.801,0.756,���k��,8.8,��
2019/01/19,06:00,0.792,1.178,0.826,1.521,1.084,0.452,0.800,0.758,���k��,8.3,��
2019/01/19,06:10,0.793,1.179,0.828,1.516,1.085,0.452,0.801,0.758,���k��,8.9,��
2019/01/19,06:20,0.790,1.180,0.829,1.518,1.081,0.452,0.802,0.756,���k��,9.9,��
2019/01/19,06:30,0.793,1.178,0.826,1.519,1.086,0.452,0.802,0.758,���k��,9.4,��
2019/01/19,06:40,0.790,1.178,0.828,1.518,1.085,0.451,0.803,0.759,���k��,8.9,��
2019/01/19,06:50,0.792,1.179,0.827,1.518,1.084,0.451,0.802,0.758,���k��,7.8,��
2019/01/19,07:00,0.790,1.177,0.825,1.518,1.085,0.451,0.802,0.757,���k��,7.1,��
2019/01/19,07:10,0.791,1.179,0.827,1.517,1.086,0.452,0.801,0.758,���k��,8.5,��
2019/01/19,07:20,0.792,1.177,0.826,1.519,1.084,0.452,0.801,0.758,���k��,6.4,��
2019/01/19,07:30,0.793,1.178,0.826,1.520,1.085,0.450,0.802,0.758,���k��,6.4,��
2019/01/19,07:40,0.793,1.180,0.827,1.517,1.082,0.452,0.803,0.757,�k��,4.8,��
2019/01/19,07:50,0.794,1.177,0.827,1.521,1.083,0.451,0.801,0.759,�k��,4.4,��
2019/01/19,08:00,0.791,1.178,0.826,1.519,1.085,0.451,0.801,0.757,�k�k��,2.2,��
2019/01/19,08:10,0.794,1.180,0.828,1.521,1.083,0.452,0.801,0.759,�k�k��,0.6,��
2019/01/19,08:20,0.793,1.177,0.829,1.515,1.081,0.451,0.802,0.759,��,1.5,��
2019/01/19,08:30,0.792,1.173,0.827,1.518,1.085,0.450,0.801,0.758,-,CALM,��
2019/01/19,08:40,0.792,1.176,0.828,1.519,1.085,0.452,0.804,0.757,�k,1.5,��
2019/01/19,08:50,0.792,1.172,0.828,1.519,1.084,0.453,0.802,0.759,�k��,1.2,��
2019/01/19,09:00,0.792,1.177,0.829,1.520,1.084,0.453,0.802,0.758,��쐼,0.6,��
2019/01/19,09:10,0.794,1.174,0.827,1.520,1.084,0.452,0.802,0.758,�k��,2.8,��
2019/01/19,09:20,0.793,1.174,0.828,1.519,1.084,0.453,0.803,0.758,�k�k��,0.9,��
2019/01/19,09:30,0.793,1.178,0.826,1.521,1.086,0.452,0.799,0.758,�k��,3.1,��
2019/01/19,09:40,0.795,1.176,0.827,1.518,1.082,0.453,0.802,0.758,���k��,3.5,��
2019/01/19,09:50,0.795,1.172,0.828,1.519,1.086,0.452,0.801,0.759,�k�k��,3.3,��
2019/01/19,10:00,0.795,1.173,0.826,1.518,1.085,0.453,0.801,0.758,�k�k��,4.1,��
2019/01/19,10:10,0.793,1.172,0.829,1.520,1.084,0.453,0.802,0.760,�k��,3.5,��
2019/01/19,10:20,0.794,1.172,0.826,1.520,1.085,0.453,0.800,0.757,�k�k��,3.1,��
2019/01/19,10:30,0.791,1.171,0.827,1.518,1.086,0.453,0.800,0.759,�k,2.3,��
2019/01/19,10:40,0.792,1.170,0.828,1.519,1.085,0.453,0.800,0.757,�k��,3.5,��
2019/01/19,10:50,0.792,1.174,0.827,1.519,1.085,0.452,0.799,0.758,���k��,2.0,��
2019/01/19,11:00,0.793,1.172,0.828,1.521,1.085,0.453,0.800,0.758,���k��,3.2,��
2019/01/19,11:10,0.794,1.175,0.829,1.520,1.085,0.452,0.802,0.757,��,2.9,��
2019/01/19,11:20,0.794,1.176,0.828,1.521,1.085,0.453,0.799,0.757,��,4.6,��
2019/01/19,11:30,0.795,1.177,0.827,1.521,1.085,0.453,0.802,0.758,���쓌,4.8,��
2019/01/19,11:40,0.795,1.177,0.829,1.519,1.084,0.454,0.800,0.758,���쓌,5.4,��
2019/01/19,11:50,0.794,1.177,0.829,1.518,1.084,0.454,0.799,0.759,���쓌,4.2,��
2019/01/19,12:00,0.794,1.182,0.829,1.518,1.084,0.453,0.801,0.759,���쓌,4.9,��
2019/01/19,12:10,0.794,1.178,0.828,1.519,1.084,0.452,0.800,0.759,��,5.0,��
2019/01/19,12:20,0.796,1.177,0.830,1.520,1.085,0.452,0.800,0.760,���쓌,6.0,��
2019/01/19,12:30,0.795,1.180,0.828,1.520,1.082,0.452,0.801,0.758,�쓌,6.3,��
2019/01/19,12:40,0.795,1.176,0.831,1.519,1.085,0.454,0.801,0.760,���쓌,7.0,��
2019/01/19,12:50,0.795,1.173,0.829,1.523,1.084,0.454,0.802,0.757,�쓌,5.7,��
2019/01/19,13:00,0.796,1.175,0.829,1.521,1.085,0.452,0.802,0.758,���쓌,5.1,��
2019/01/19,13:10,0.794,1.178,0.829,1.521,1.085,0.455,0.802,0.759,�쓌,4.3,��
2019/01/19,13:20,0.795,1.175,0.831,1.520,1.088,0.453,0.806,0.759,��쐼,5.0,��
2019/01/19,13:30,0.794,1.176,0.829,1.522,1.085,0.454,0.804,0.759,��쐼,4.9,��
2019/01/19,13:40,0.796,1.179,0.832,1.521,1.084,0.453,0.803,0.758,���쐼,3.0,��
2019/01/19,13:50,0.795,1.175,0.828,1.520,1.087,0.455,0.802,0.758,�k��,1.5,��
2019/01/19,14:00,0.794,1.175,0.828,1.520,1.088,0.454,0.803,0.756,�k,1.2,��
2019/01/19,14:10,0.796,1.175,0.829,1.520,1.089,0.455,0.803,0.756,��,6.5,��
2019/01/19,14:20,0.798,1.179,0.829,1.519,1.090,0.455,0.801,0.757,��,9.3,��
2019/01/19,14:30,0.796,1.175,0.828,1.518,1.090,0.455,0.801,0.757,��,6.4,��
2019/01/19,14:40,0.797,1.176,0.828,1.519,1.089,0.454,0.801,0.757,��,7.5,��
2019/01/19,14:50,0.796,1.174,0.829,1.520,1.089,0.454,0.801,0.755,��,8.7,��
2019/01/19,15:00,0.795,1.177,0.829,1.522,1.089,0.454,0.802,0.756,��,9.8,��
2019/01/19,15:10,0.795,1.179,0.831,1.522,1.087,0.454,0.803,0.756,��,8.5,��
2019/01/19,15:20,0.796,1.179,0.828,1.524,1.088,0.454,0.800,0.757,��,7.0,��
2019/01/19,15:30,0.794,1.179,0.828,1.523,1.087,0.453,0.802,0.758,��,8.8,��
2019/01/19,15:40,0.795,1.182,0.831,1.523,1.087,0.452,0.802,0.761,��,8.3,��
2019/01/19,15:50,0.793,1.182,0.828,1.523,1.089,0.454,0.803,0.759,���쐼,8.2,��
2019/01/19,16:00,0.794,1.185,0.829,1.522,1.087,0.454,0.802,0.758,��,9.1,��
2019/01/19,16:10,0.795,1.183,0.830,1.525,1.087,0.454,0.804,0.758,��,8.4,��
2019/01/19,16:20,0.795,1.180,0.830,1.521,1.089,0.454,0.804,0.757,��,8.9,��
2019/01/19,16:30,0.792,1.184,0.829,1.523,1.088,0.453,0.802,0.758,���쐼,9.5,��
2019/01/19,16:40,0.793,1.180,0.829,1.521,1.087,0.453,0.804,0.756,���쐼,8.8,��
2019/01/19,16:50,0.795,1.183,0.828,1.520,1.089,0.454,0.803,0.757,���쐼,7.8,��
2019/01/19,17:00,0.796,1.181,0.828,1.521,1.087,0.453,0.802,0.759,��,8.3,��
2019/01/19,17:10,0.794,1.182,0.828,1.519,1.088,0.454,0.804,0.759,���쐼,7.4,��
2019/01/19,17:20,0.795,1.181,0.827,1.522,1.087,0.455,0.803,0.760,���쐼,6.2,��
2019/01/19,17:30,0.793,1.182,0.829,1.520,1.089,0.454,0.803,0.758,��,6.1,��
2019/01/19,17:40,0.793,1.183,0.830,1.520,1.088,0.453,0.804,0.759,��,5.4,��
2019/01/19,17:50,0.794,1.181,0.829,1.522,1.088,0.453,0.803,0.759,��,5.6,��
2019/01/19,18:00,0.794,1.183,0.830,1.523,1.088,0.453,0.801,0.757,��,5.0,��
2019/01/19,18:10,0.795,1.181,0.830,1.520,1.086,0.454,0.804,0.758,��,4.7,��
2019/01/19,18:20,0.795,1.182,0.828,1.521,1.086,0.454,0.801,0.759,���쐼,4.0,��
2019/01/19,18:30,0.793,1.182,0.828,1.518,1.089,0.454,0.801,0.758,���쐼,4.7,��
2019/01/19,18:40,0.794,1.179,0.829,1.522,1.088,0.454,0.801,0.757,��,4.8,��
2019/01/19,18:50,0.794,1.182,0.828,1.519,1.088,0.453,0.800,0.758,��,4.4,��
2019/01/19,19:00,0.794,1.181,0.829,1.520,1.088,0.452,0.801,0.756,��,5.0,��
2019/01/19,19:10,0.793,1.181,0.831,1.519,1.085,0.454,0.802,0.757,��,5.4,��
2019/01/19,19:20,0.794,1.181,0.830,1.519,1.086,0.454,0.801,0.757,��,5.7,��
2019/01/19,19:30,0.794,1.182,0.830,1.523,1.086,0.454,0.804,0.756,��,6.4,��
2019/01/19,19:40,0.794,1.182,0.829,1.521,1.087,0.453,0.802,0.758,��,6.3,��
2019/01/19,19:50,0.797,1.181,0.829,1.521,1.086,0.454,0.801,0.758,���k��,4.5,��
2019/01/19,20:00,0.794,1.182,0.829,1.519,1.088,0.453,0.801,0.758,��,3.2,��
2019/01/19,20:10,0.792,1.182,0.827,1.522,1.088,0.452,0.801,0.757,���쐼,2.3,��
2019/01/19,20:20,0.792,1.180,0.828,1.517,1.086,0.453,0.801,0.757,�쐼,1.5,��
2019/01/19,20:30,0.794,1.183,0.826,1.519,1.087,0.453,0.800,0.757,��,1.2,��
2019/01/19,20:40,0.796,1.180,0.829,1.518,1.087,0.452,0.801,0.757,��쓌,1.5,��
2019/01/19,20:50,0.795,1.181,0.828,1.520,1.088,0.453,0.799,0.756,�쓌,1.5,��
2019/01/19,21:00,0.793,1.183,0.829,1.518,1.086,0.452,0.800,0.757,��쓌,1.7,��
2019/01/19,21:10,0.793,1.179,0.829,1.520,1.086,0.452,0.801,0.758,��쓌,1.2,��
2019/01/19,21:20,0.796,1.180,0.828,1.519,1.086,0.453,0.800,0.758,�쐼,0.6,��
2019/01/19,21:30,0.794,1.180,0.827,1.522,1.087,0.454,0.800,0.758,-,CALM,��
2019/01/19,21:40,0.791,1.182,0.826,1.519,1.088,0.451,0.799,0.755,���k��,1.5,��
2019/01/19,21:50,0.795,1.180,0.827,1.519,1.086,0.451,0.802,0.758,��,1.8,��
2019/01/19,22:00,0.793,1.180,0.829,1.518,1.086,0.452,0.800,0.757,���k��,2.3,��
2019/01/19,22:10,0.794,1.179,0.827,1.519,1.087,0.453,0.801,0.757,���쐼,1.5,��
2019/01/19,22:20,0.793,1.180,0.827,1.519,1.088,0.452,0.801,0.756,���k��,1.4,��
2019/01/19,22:30,0.793,1.181,0.829,1.520,1.085,0.453,0.801,0.757,���쐼,1.1,��
2019/01/19,22:40,0.792,1.179,0.827,1.520,1.087,0.453,0.799,0.757,���쐼,0.9,��
2019/01/19,22:50,0.793,1.178,0.826,1.521,1.088,0.450,0.798,0.757,�쐼,1.4,��
2019/01/19,23:00,0.794,1.180,0.829,1.522,1.086,0.451,0.799,0.755,-,CALM,��
2019/01/19,23:10,0.794,1.179,0.826,1.517,1.084,0.454,0.800,0.757,�쐼,0.6,��
2019/01/19,23:20,0.792,1.180,0.827,1.520,1.087,0.451,0.799,0.757,���쐼,0.6,��
2019/01/19,23:30,0.789,1.181,0.828,1.517,1.085,0.453,0.800,0.756,�쐼,0.6,��
2019/01/19,23:40,0.793,1.180,0.828,1.518,1.086,0.452,0.801,0.756,���쐼,1.2,��
2019/01/19,23:50,0.794,1.181,0.827,1.520,1.088,0.451,0.800,0.756,�쐼,0.6,��
